User: anonymous   Login
Location: NJAA Observatory
(40.6819°N, 74.8979°W)
Time: 21:41:44
(UTC-05:00)
Language:

Cosmos 1328 Rocket - Orbit

View from above orbital plane
View from above orbital plane
View from above satellite
View from above satellite

Ground track
Ground track

The orbit data is extracted from the following two-line orbital elements,

1 12988U 81117B   17015.92422043 +.00000065 +00000-0 +48076-5 0  9997
2 12988 082.5228 216.1632 0017953 355.6302 123.2250 14.84630813876179
Epoch (UTC): 15 January 2017 22:10:52
Eccentricity: 0.0017953
inclination: 82.5228°
perigee height: 602 km
apogee height: 627 km
right ascension of ascending node: 216.1632°
argument of perigee: 355.6302°
revolutions per day: 14.84630813
mean anomaly at epoch: 123.2250°
orbit number at epoch: 87617

The dashed part of the orbit path shows where the satellite is in the earth's shadow,  

DLR